DO9LL-1 Weather Reports


Display with metric or nautical units.
time (UTC)temp
F
wind
direction
speed
MPH
gust
MPH
rain 1hr
in
rain 24hr
in
rain mn
in
humidity
%
barometer
mb
20260503235222 58 260 2.0 4.0 0.00 0.01 0.00 90 1011.0
20260503234218 58 250 2.0 7.0 0.00 0.01 0.00 89 1010.8
20260503233240 58 253 3.0 7.0 0.00 0.01 0.00 89 1010.8
20260503232231 58 265 2.0 4.0 0.00 0.01 0.00 89 1011.0
20260503231228 58 258 3.0 6.0 0.00 0.01 0.00 89 1011.0
20260503230225 58 251 2.0 4.0 0.00 0.01 0.00 89 1010.9
20260503225222 58 262 1.0 3.0 0.00 0.02 0.00 89 1010.8
20260503224218 59 263 2.0 3.0 0.00 0.02 0.00 88 1010.6
20260503223235 59 214 1.0 3.0 0.00 0.02 0.00 88 1010.6
20260503222235 58 247 1.0 2.0 0.00 0.02 0.00 88 1010.6
20260503221229 58 245 1.0 2.0 0.00 0.02 0.00 88 1010.6
20260503220226 58 210 0.0 1.0 0.00 0.02 0.02 88 1010.6
20260503215222 58 262 1.0 3.0 0.00 0.02 0.02 88 1010.5
20260503214219 59 181 0.0 2.0 0.00 0.02 0.02 88 1010.6
20260503213216 59 214 0.0 2.0 0.00 0.02 0.02 87 1010.7
20260503212232 59 169 1.0 4.0 0.00 0.02 0.02 88 1010.6
20260503211229 59 168 2.0 3.0 0.00 0.02 0.02 88 1010.6
20260503210226 59 171 0.0 1.0 0.00 0.04 0.02 89 1010.6
20260503205222 59 274 0.0 3.0 0.00 0.07 0.02 89 1010.7
20260503204219 59 260 0.0 2.0 0.00 0.08 0.02 89 1010.6
20260503203216 59 192 1.0 3.0 0.00 0.08 0.02 89 1010.7
20260503202233 59 186 1.0 4.0 0.00 0.11 0.02 89 1010.7
20260503201229 59 271 1.0 3.0 0.00 0.15 0.02 90 1010.7
20260503200226 59 241 0.0 2.0 0.00 0.20 0.02 90 1010.9
20260503195223 59 147 1.0 2.0 0.00 0.22 0.02 90 1010.7
20260503194219 59 162 0.0 2.0 0.00 0.31 0.02 90 1010.7
20260503193235 59 200 0.0 2.0 0.00 0.31 0.02 89 1010.6
20260503192232 59 264 1.0 3.0 0.00 0.31 0.02 89 1010.6
20260503191228 59 257 1.0 6.0 0.00 0.31 0.02 89 1010.5
20260503190225 59 220 1.0 3.0 0.00 0.31 0.02 89 1010.6
20260503185222 59 235 1.0 7.0 0.00 0.31 0.02 88 1010.3
20260503184218 59 227 1.0 3.0 0.00 0.31 0.02 88 1010.2
20260503183215 59 231 1.0 3.0 0.00 0.31 0.02 88 1010.3
20260503182232 59 162 1.0 3.0 0.00 0.31 0.02 88 1010.2
20260503181229 59 204 1.0 4.0 0.00 0.31 0.02 87 1010.0
20260503180225 60 205 1.0 4.0 0.00 0.31 0.02 87 1010.1
20260503175222 59 211 0.0 1.0 0.00 0.31 0.02 87 1010.1
20260503174219 59 203 2.0 3.0 0.00 0.31 0.02 87 1010.1
20260503173216 58 200 1.0 4.0 0.00 0.31 0.02 88 1010.0
20260503172232 59 262 2.0 7.0 0.00 0.31 0.02 88 1010.1
20260503171229 59 175 1.0 3.0 0.00 0.31 0.02 88 1010.1
20260503170225 59 167 0.0 1.0 0.00 0.31 0.02 88 1010.2
20260503150226 63 214 2.0 4.0 0.00 0.31 0.02 67 1009.8
20260503140226 66 171 3.0 7.0 0.00 0.31 0.02 56 1009.8
20260503131230 68 285 4.0 8.0 0.00 0.31 0.02 60 1009.6
20260503130225 68 254 3.0 7.0 0.00 0.31 0.02 61 1009.7
20260503110226 72 168 3.0 8.0 0.00 0.31 0.02 56 1009.8
20260503100226 70 242 3.0 6.0 0.00 0.31 0.02 63 1010.0
20260503090231 67 152 1.0 2.0 0.00 0.31 0.02 69 1010.0
20260503080722 65 153 2.0 4.0 0.00 0.31 0.02 75 1010.3
20260503072733 62 159 1.0 3.0 0.01 0.31 0.02 81 1010.4
20260503071726 62 177 1.0 4.0 0.01 0.31 0.02 85 1010.4
20260503070721 61 151 1.0 3.0 0.01 0.31 0.02 88 1010.3
20260503054735 57 182 0.0 2.0 0.00 0.30 0.01 96 1010.5
20260503053731 57 0.0 0.0 0.00 0.30 0.01 96 1010.4
20260503052728 57 0.0 0.0 0.00 0.30 0.01 96 1010.5
20260503051724 56 0.0 0.0 0.00 0.30 0.01 97 1010.4
20260503050721 56 0.0 0.0 0.00 0.30 0.01 97 1010.4
20260503045717 56 0.0 0.0 0.00 0.30 0.01 97 1010.3
20260503044734 55 0.0 0.0 0.00 0.30 0.01 97 1010.3
20260503043731 55 0.0 0.0 0.00 0.30 0.01 97 1010.4
20260503042733 55 0.0 0.0 0.00 0.30 0.01 97 1010.4
20260503041724 55 0.0 0.0 0.00 0.30 0.01 97 1010.6
20260503040723 56 0.0 0.0 0.00 0.30 0.01 97 1010.7
20260503035719 56 0.0 0.0 0.00 0.30 0.01 97 1010.7
20260503034735 56 0.0 0.0 0.00 0.30 0.01 97 1010.7
20260503033733 56 0.0 0.0 0.00 0.30 0.01 97 1011.0
20260503032734 56 0.0 0.0 0.00 0.30 0.01 97 1011.0
20260503031725 56 0.0 0.0 0.00 0.30 0.01 97 1011.1
20260503030722 56 0.0 0.0 0.00 0.30 0.01 96 1011.1
20260503025719 56 221 0.0 1.0 0.00 0.30 0.01 96 1011.4
20260503024716 56 0.0 0.0 0.00 0.30 0.01 96 1011.5
20260503023733 56 0.0 0.0 0.00 0.30 0.01 96 1011.9
20260503022735 55 319 0.0 1.0 0.00 0.30 0.01 96 1011.9
20260503021727 56 0.0 0.0 0.00 0.30 0.01 96 1011.8
20260503020724 56 0.0 0.0 0.00 0.30 0.01 96 1011.6
20260503015720 56 0.0 0.0 0.00 0.30 0.01 95 1011.6
20260503014717 56 200 0.0 1.0 0.00 0.30 0.01 96 1011.6
20260503013735 56 0.0 0.0 0.00 0.30 0.01 95 1011.7
20260503012731 56 0.0 0.0 0.00 0.30 0.01 95 1011.7
20260503011728 57 0.0 0.0 0.00 0.30 0.01 95 1011.8
20260503010725 57 0.0 0.0 0.00 0.30 0.01 95 1012.0
20260503005722 57 0.0 0.0 0.00 0.30 0.01 95 1012.1
20260503004719 57 184 0.0 1.0 0.00 0.30 0.01 95 1012.4
20260503003715 57 0.0 0.0 0.00 0.30 0.01 95 1012.4
20260503002737 57 0.0 0.0 0.00 0.30 0.01 95 1012.6
20260503001729 57 0.0 0.0 0.00 0.30 0.01 95 1013.0
20260503000728 57 0.0 0.0 0.00 0.30 0.01 96 1013.2
20260502235724 57 271 0.0 1.0 0.00 0.30 0.01 96 1013.5